Date String (YYYY-MM-DD hh:mm:ss) UTC,Instrument flags,absolute air pressure of the measurement (hPa),sample flow rate (lpm),inlet stack bypass flow (lpm),air temperature of the measurement (°C),ambient temperature measured by the external sensor (°C),aerosol sample conditioner tube jacket temperature (°C),OPC LED temperature (°C),internal box temperature (°C),relative humidity of the measurement (%),span deviation,mass concentration of particles derived from Lorenz-Mie calculation of OPC scattering (μg/m³),mass concentration of particles derived from Lorenz-Mie calculation of OPC scattering (μg/m³),mass concentration of particles derived from Lorenz-Mie calculation of OPC scattering (μg/m³)
DateTimeUTC,F1_M11,P_M11,Q1_M11,Q2_M11,T1_M11,T2_M11,T3_M11,T4_M11,T5_M11,U1_M11,ZSPAN_M11,X0_M11,X2_M11,X1_M11
2024-03-31 23:00:00,SystemResetWarning,0815.4,4.99,000.00,022.7,022.1,000.0,031.2,024.5,24.3,0001.1,0020.78,0012.48,0011.54
2024-03-31 23:01:00,SystemResetWarning,0815.4,5.01,000.00,022.7,022.1,000.0,031.2,024.6,24.5,0001.0,0020.30,0012.37,0011.49
2024-03-31 23:02:00,SystemResetWarning,0815.4,5.01,000.00,022.7,022.1,000.0,031.2,024.6,24.4,0001.3,0020.54,0012.35,0011.44
2024-03-31 23:03:00,SystemResetWarning,0815.4,5.01,000.00,022.7,022.1,000.0,031.2,024.6,24.5,0001.5,0020.48,0012.32,0011.42
2024-03-31 23:04:00,SystemResetWarning,0815.3,4.99,000.00,022.7,022.1,000.0,031.2,024.6,24.5,0001.4,0020.06,0012.26,0011.38
2024-03-31 23:05:00,SystemResetWarning,0815.3,4.99,000.00,022.7,022.1,000.0,031.2,024.6,24.2,0001.2,0018.79,0012.30,0011.39
2024-03-31 23:06:00,SystemResetWarning,0815.3,5.00,000.00,022.7,022.1,000.0,031.2,024.6,24.2,0001.1,0018.19,0012.33,0011.40
2024-03-31 23:07:00,SystemResetWarning,0815.3,5.01,000.00,022.7,022.1,000.0,031.2,024.6,24.2,0000.8,0017.38,0012.30,0011.40
2024-03-31 23:08:00,SystemResetWarning,0815.3,5.01,000.00,022.7,022.1,000.0,031.2,024.6,24.4,0000.5,0017.49,0012.29,0011.42
2024-03-31 23:09:00,SystemResetWarning,0815.3,5.00,000.00,022.7,022.1,000.0,031.2,024.6,24.4,0000.5,0018.21,0012.29,0011.42
2024-03-31 23:10:00,SystemResetWarning,0815.3,5.00,000.00,022.7,022.1,000.0,031.2,024.6,24.3,0000.7,0018.38,0012.31,0011.44
2024-03-31 23:11:00,SystemResetWarning,0815.3,5.00,000.00,022.7,022.1,000.0,031.2,024.6,24.2,0001.1,0019.03,0012.36,0011.47
2024-03-31 23:12:00,SystemResetWarning,0815.3,4.99,000.00,022.8,022.1,000.0,031.2,024.6,24.2,0001.1,0018.72,0012.41,0011.51
2024-03-31 23:13:00,SystemResetWarning,0815.3,5.00,000.00,022.8,022.1,000.0,031.2,024.6,24.3,0001.1,0018.96,0012.45,0011.56
2024-03-31 23:14:00,SystemResetWarning,0815.4,5.00,000.00,022.8,022.1,000.0,031.2,024.6,24.3,0001.0,0019.42,0012.53,0011.61
2024-03-31 23:15:00,SystemResetWarning,0815.5,5.00,000.00,022.8,022.1,000.0,031.2,024.6,24.5,0001.3,0019.47,0012.61,0011.67
2024-03-31 23:16:00,SystemResetWarning,0815.6,4.99,000.00,022.8,022.1,000.0,031.2,024.6,24.4,0001.3,0019.47,0012.60,0011.69
2024-03-31 23:17:00,SystemResetWarning,0815.5,5.00,000.00,022.8,022.2,000.0,031.2,024.6,24.6,0001.5,0019.49,0012.60,0011.69
2024-03-31 23:18:00,SystemResetWarning,0815.3,5.00,000.00,022.8,022.2,000.0,031.3,024.6,24.4,0001.8,0020.10,0012.60,0011.70
2024-03-31 23:19:00,SystemResetWarning,0815.2,5.00,000.00,022.8,022.2,000.0,031.3,024.6,24.1,0002.1,0020.27,0012.67,0011.73
2024-03-31 23:20:00,SystemResetWarning,0815.1,4.99,000.00,022.8,022.1,000.0,031.3,024.6,24.1,0002.3,0020.73,0012.70,0011.75
2024-03-31 23:21:00,SystemResetWarning,0815.0,5.00,000.00,022.8,022.1,000.0,031.3,024.6,24.2,0002.1,0020.93,0012.79,0011.78
2024-03-31 23:22:00,SystemResetWarning,0814.9,5.00,000.00,022.8,022.1,000.0,031.3,024.6,24.3,0001.9,0021.47,0012.79,0011.80
2024-03-31 23:23:00,SystemResetWarning,0814.9,5.00,000.00,022.8,022.1,000.0,031.3,024.6,24.3,0001.8,0022.05,0012.84,0011.80
2024-03-31 23:24:00,SystemResetWarning,0815.0,5.01,000.00,022.8,022.1,000.0,031.3,024.6,24.4,0001.7,0021.95,0012.87,0011.81
2024-03-31 23:25:00,SystemResetWarning,0814.9,5.01,000.00,022.8,022.1,000.0,031.3,024.6,24.5,0001.8,0021.62,0012.84,0011.82
2024-03-31 23:26:00,SystemResetWarning,0814.9,4.99,000.00,022.8,022.1,000.0,031.3,024.6,24.6,0001.8,0021.87,0012.83,0011.84
2024-03-31 23:27:00,SystemResetWarning,0814.9,4.99,000.00,022.8,022.1,000.0,031.3,024.6,24.4,0001.9,0023.18,0012.83,0011.85
2024-03-31 23:28:00,SystemResetWarning,0815.0,4.99,000.00,022.8,022.1,000.0,031.3,024.6,24.4,0002.0,0023.86,0012.89,0011.90
2024-03-31 23:29:00,SystemResetWarning,0815.1,5.00,000.00,022.8,022.1,000.0,031.3,024.6,24.5,0001.9,0023.71,0012.89,0011.94
2024-03-31 23:30:00,SystemResetWarning,0815.1,5.01,000.00,022.8,022.1,000.0,031.3,024.6,24.5,0001.6,0024.32,0012.92,0011.97
2024-03-31 23:31:00,SystemResetWarning,0815.2,5.01,000.00,022.8,022.2,000.0,031.3,024.7,24.7,0001.6,0024.11,0012.92,0011.97
2024-03-31 23:32:00,SystemResetWarning,0815.3,4.99,000.00,022.8,022.2,000.0,031.3,024.7,24.6,0001.7,0023.92,0012.95,0011.99
2024-03-31 23:33:00,SystemResetWarning,0815.3,4.99,000.00,022.8,022.2,000.0,031.3,024.7,24.4,0002.0,0024.19,0012.96,0012.00
2024-03-31 23:34:00,SystemResetWarning,0815.2,5.01,000.00,022.8,022.2,000.0,031.3,024.7,24.5,0001.9,0023.35,0012.94,0012.01
2024-03-31 23:35:00,SystemResetWarning,0815.2,5.00,000.00,022.8,022.2,000.0,031.3,024.7,24.6,0002.1,0023.15,0012.93,0012.03
2024-03-31 23:36:00,SystemResetWarning,0815.3,5.00,000.00,022.8,022.2,000.0,031.3,024.7,24.5,0002.1,0023.12,0012.92,0012.01
2024-03-31 23:37:00,SystemResetWarning,0815.4,5.00,000.00,022.8,022.2,000.0,031.3,024.7,24.5,0002.0,0022.64,0012.92,0011.98
2024-03-31 23:38:00,SystemResetWarning,0815.4,5.00,000.00,022.8,022.2,000.0,031.3,024.7,24.5,0001.7,0021.88,0012.86,0011.94
2024-03-31 23:39:00,SystemResetWarning,0815.3,5.01,000.00,022.8,022.2,000.0,031.3,024.7,24.4,0001.6,0021.87,0012.78,0011.88
2024-03-31 23:40:00,SystemResetWarning,0815.3,5.00,000.00,022.8,022.2,000.0,031.3,024.7,24.0,0001.4,0021.85,0012.73,0011.82
2024-03-31 23:41:00,SystemResetWarning,0815.2,5.00,000.00,022.8,022.2,000.0,031.3,024.7,23.9,0001.6,0020.70,0012.66,0011.73
2024-03-31 23:42:00,SystemResetWarning,0815.2,4.99,000.00,022.8,022.2,000.0,031.3,024.7,23.9,0001.6,0021.15,0012.58,0011.65
2024-03-31 23:43:00,SystemResetWarning,0815.2,4.99,000.00,022.8,022.2,000.0,031.3,024.7,24.1,0001.1,0020.61,0012.45,0011.57
2024-03-31 23:44:00,SystemResetWarning,0815.2,4.99,000.00,022.8,022.2,000.0,031.4,024.7,24.2,0000.8,0020.12,0012.32,0011.50
2024-03-31 23:45:00,SystemResetWarning,0815.1,5.00,000.00,022.9,022.2,000.0,031.4,024.7,24.5,0000.6,0020.22,0012.20,0011.39
2024-03-31 23:46:00,SystemResetWarning,0815.2,5.00,000.00,022.8,022.2,000.0,031.4,024.7,24.3,0000.2,0020.47,0012.08,0011.28
2024-03-31 23:47:00,SystemResetWarning,0815.3,5.00,000.00,022.9,022.2,000.0,031.3,024.7,24.3,0000.1,0020.47,0012.03,0011.22
2024-03-31 23:48:00,SystemResetWarning,0815.3,5.01,000.00,022.9,022.2,000.0,031.4,024.7,24.3,0000.2,0021.07,0012.00,0011.16
2024-03-31 23:49:00,SystemResetWarning,0815.5,5.00,000.00,022.9,022.2,000.0,031.4,024.7,23.7,0000.5,0021.07,0012.02,0011.13
2024-03-31 23:50:00,SystemResetWarning,0815.6,5.01,000.00,022.9,022.2,000.0,031.4,024.7,24.1,0000.6,0020.68,0012.00,0011.10
2024-03-31 23:51:00,SystemResetWarning,0815.6,4.99,000.00,022.9,022.2,000.0,031.4,024.8,24.3,0000.7,0020.36,0011.98,0011.10
2024-03-31 23:52:00,SystemResetWarning,0815.6,4.99,000.00,022.9,022.2,000.0,031.4,024.8,24.3,0000.8,0020.46,0011.95,0011.09
2024-03-31 23:53:00,SystemResetWarning,0815.6,4.99,000.00,022.9,022.2,000.0,031.4,024.8,24.2,0000.7,0019.88,0011.97,0011.12
2024-03-31 23:54:00,SystemResetWarning,0815.6,5.00,000.00,022.9,022.2,000.0,031.4,024.8,24.0,0001.0,0019.49,0012.02,0011.16
2024-03-31 23:55:00,SystemResetWarning,0815.6,5.00,000.00,022.9,022.2,000.0,031.4,024.8,24.1,0001.1,0019.16,0012.04,0011.18
2024-03-31 23:56:00,SystemResetWarning,0815.6,5.01,000.00,022.9,022.2,000.0,031.4,024.8,24.0,0001.2,0018.59,0012.13,0011.23
2024-03-31 23:57:00,SystemResetWarning,0815.5,5.01,000.00,022.9,022.3,000.0,031.4,024.8,24.1,0001.6,0018.23,0012.16,0011.28
2024-03-31 23:58:00,SystemResetWarning,0815.5,5.00,000.00,022.9,022.3,000.0,031.4,024.8,24.0,0001.8,0018.68,0012.19,0011.30
2024-03-31 23:59:00,SystemResetWarning,0815.4,5.00,000.00,022.9,022.3,000.0,031.4,024.8,24.0,0001.8,0018.27,0012.20,0011.33
